GW2085 Weather Reports


time (UTC)temp
C
wind
direction
speed
KPH
gust
KPH
rain 1hr
cm
rain 24hr
cm
rain mn
cm
humidity
%
barometer
mb
20260507120051 9 0 0.0 0.0 0.00 0.00 0.00 91 1015.8
20260507114551 10 0 0.0 0.0 0.00 0.00 0.00 91 1015.9
20260507113050 10 0 0.0 0.0 0.00 0.00 0.00 91 1016.0
20260507111552 10 0 0.0 0.0 0.00 0.00 0.00 91 1016.0
20260507110052 10 0 0.0 0.0 0.00 0.00 0.00 91 1016.1
20260507104550 10 0 0.0 0.0 0.00 0.00 0.00 91 1016.2
20260507103052 10 0 0.0 0.0 0.00 0.00 0.00 90 1016.2
20260507101556 10 0 0.0 0.0 0.00 0.00 0.00 90 1016.4
20260507100054 10 0 0.0 0.0 0.00 0.00 0.00 90 1016.4
20260507094553 10 0 0.0 0.0 0.00 0.00 0.00 90 1016.5
20260507093058 10 0 0.0 0.0 0.00 0.00 0.00 90 1016.8
20260507091556 11 0 0.0 0.0 0.00 0.00 0.00 90 1016.7
20260507090054 11 0 0.0 0.0 0.00 0.00 0.00 90 1016.8
20260507084551 11 0 0.0 0.0 0.00 0.00 0.00 89 1017.0
20260507083052 11 0 0.0 0.0 0.00 0.00 0.00 89 1017.1
20260507081554 11 0 0.0 0.0 0.00 0.00 0.00 89 1017.3
20260507080111 11 0 0.0 0.0 0.00 0.00 0.00 88 1017.4
20260507074554 12 0 0.0 1.6 0.00 0.00 0.00 88 1017.5
20260507073051 12 0 0.0 1.6 0.00 0.00 0.00 88 1017.4
20260507071608 12 0 0.0 0.0 0.00 0.00 0.00 88 1017.4
20260507070055 12 0 0.0 0.0 0.00 0.00 0.00 87 1017.5
20260507064552 12 0 0.0 0.0 0.00 0.00 0.00 87 1017.4
20260507063057 12 0 0.0 0.0 0.00 0.00 0.00 86 1017.6
20260507061558 12 0 0.0 0.0 0.00 0.00 0.00 86 1017.4
20260507060058 13 0 0.0 0.0 0.00 0.00 0.00 85 1017.5
20260507054603 13 0 0.0 0.0 0.00 0.00 0.00 84 1017.4
20260507053117 13 0 0.0 0.0 0.00 0.00 0.00 83 1017.4
20260507051604 13 0 0.0 0.0 0.00 0.00 0.00 82 1017.4
20260507050056 14 0 0.0 0.0 0.00 0.00 0.00 81 1017.3
20260507044557 14 0 0.0 0.0 0.00 0.00 0.00 79 1017.2
20260507043100 15 0 0.0 0.0 0.00 0.00 0.00 78 1017.2
20260507041555 15 0 0.0 0.0 0.00 0.00 0.00 75 1017.2
20260507040049 15 0 0.0 1.6 0.00 0.00 0.00 74 1017.1
20260507034555 15 0 0.0 3.2 0.00 0.00 0.00 73 1017.1
20260507033052 16 0 0.0 1.6 0.00 0.00 0.00 72 1016.9
20260507031557 16 0 0.0 3.2 0.00 0.00 0.00 70 1016.8
20260507030056 16 0 0.0 4.8 0.00 0.00 0.00 69 1016.8
20260507024602 17 257 0.0 3.2 0.00 0.00 0.00 67 1016.7
20260507023054 17 276 0.0 3.2 0.00 0.00 0.00 66 1016.6
20260507021548 17 0 0.0 4.8 0.00 0.00 0.00 65 1016.5
20260507020051 18 240 1.6 8.0 0.00 0.00 0.00 64 1016.3
20260507014602 18 306 0.0 8.0 0.00 0.00 0.00 64 1016.2
20260507013051 19 319 1.6 9.7 0.00 0.00 0.00 64 1016.1
20260507011548 20 236 1.6 8.0 0.00 0.00 0.00 62 1016.0
20260507004559 21 342 3.2 9.7 0.00 0.00 0.00 57 1015.9
20260507003102 21 321 1.6 8.0 0.00 0.00 0.00 57 1015.9
20260507001556 21 272 4.8 6.4 0.00 0.00 0.00 56 1015.7
20260507000056 21 308 4.8 11.3 0.00 0.00 0.00 58 1015.6
20260506234555 21 323 3.2 11.3 0.00 0.00 0.00 56 1015.4
20260506233058 21 301 6.4 12.9 0.00 0.00 0.00 56 1015.5
20260506231601 21 263 3.2 11.3 0.00 0.00 0.00 56 1015.7
20260506230055 21 351 4.8 12.9 0.00 0.00 0.00 56 1015.6
20260506224553 21 249 4.8 14.5 0.00 0.00 0.00 57 1015.8
20260506223054 21 236 3.2 17.7 0.00 0.00 0.00 58 1015.8
20260506221552 21 338 4.8 11.3 0.00 0.00 0.00 57 1015.9
20260506220050 21 255 4.8 16.1 0.00 0.00 0.00 57 1016.1
20260506214603 22 319 4.8 12.9 0.00 0.00 0.00 54 1016.1
20260506213055 22 325 4.8 14.5 0.00 0.00 0.00 54 1016.2
20260506211550 22 290 6.4 14.5 0.00 0.00 0.00 54 1016.1
20260506210057 22 311 4.8 17.7 0.00 0.00 0.00 54 1016.2
20260506204553 22 221 4.8 12.9 0.00 0.00 0.00 53 1016.2
20260506203052 23 305 4.8 11.3 0.00 0.00 0.00 51 1016.3
20260506201551 23 247 4.8 14.5 0.00 0.00 0.00 49 1016.3
20260506194605 22 243 3.2 11.3 0.00 0.00 0.00 48 1016.8
20260506193056 22 143 4.8 19.3 0.00 0.00 0.00 50 1017.0
20260506191606 22 244 4.8 12.9 0.00 0.00 0.00 49 1017.3
20260506190053 22 174 4.8 9.7 0.00 0.00 0.00 50 1017.3
20260506184554 21 278 3.2 16.1 0.00 0.00 0.00 52 1017.4
20260506183120 21 240 4.8 11.3 0.00 0.00 0.00 52 1017.6
20260506181559 20 220 1.6 9.7 0.00 0.00 0.00 57 1017.7
20260506180114 20 336 3.2 9.7 0.00 0.00 0.00 58 1017.9
20260506174556 19 110 4.8 9.7 0.00 0.00 0.00 56 1018.0
20260506173121 19 296 3.2 8.0 0.00 0.00 0.00 58 1018.1
20260506171557 18 8 1.6 9.7 0.00 0.00 0.00 59 1018.2
20260506170100 17 75 1.6 6.4 0.00 0.00 0.00 62 1018.2
20260506164556 17 124 3.2 9.7 0.00 0.03 0.00 60 1018.3
20260506163103 17 225 1.6 4.8 0.00 0.03 0.00 65 1018.3
20260506161557 17 346 1.6 6.4 0.00 0.03 0.00 65 1018.3
20260506160056 16 269 0.0 4.8 0.00 0.03 0.00 66 1018.4
20260506154549 16 198 0.0 3.2 0.00 0.03 0.00 69 1018.4
20260506153051 15 67 1.6 3.2 0.00 0.03 0.00 72 1018.5
20260506151551 14 32 0.0 3.2 0.00 0.03 0.00 75 1018.5
20260506150058 13 65 0.0 4.8 0.00 0.03 0.00 82 1018.5
20260506144605 12 32 1.6 6.4 0.00 0.05 0.00 87 1018.5
20260506143054 11 0 0.0 3.2 0.00 0.05 0.00 91 1018.5
20260506141549 10 317 0.0 1.6 0.00 0.05 0.00 92 1018.4
20260506140054 9 0 0.0 0.0 0.00 0.05 0.00 92 1018.3
20260506134555 8 0 0.0 3.2 0.00 0.13 0.00 92 1018.3
20260506133057 8 0 0.0 0.0 0.00 0.13 0.00 91 1018.1
20260506131551 7 0 0.0 0.0 0.00 0.13 0.00 91 1017.9
20260506130052 7 0 0.0 0.0 0.00 0.13 0.00 91 1017.7
20260506124557 7 0 0.0 0.0 0.00 0.64 0.00 91 1017.6
20260506123053 7 0 0.0 0.0 0.00 0.64 0.00 91 1017.5
20260506121619 7 0 0.0 0.0 0.00 0.64 0.00 91 1017.5